This is the latest recevied weather packets stored in our database for station/object DW9280. If no packets are shown the sender has not sent any weather packets the latest 10 day(s).
| Time | Temp. | Humidity | Pressure | Rain* | Wind** | Luminosity | Snow |
|---|---|---|---|---|---|---|---|
| 1787645168 | 17.22° C | 75% | 1015.4 hPa | 0 mm | - | 431 W/m² | - |
| 1787644867 | 17.22° C | 76% | 1015.3 hPa | 0 mm | - | 369 W/m² | - |
| 1787644565 | 16.67° C | 77% | 1015.4 hPa | 0 mm | - | 308 W/m² | - |
| 1787644262 | 16.67° C | 77% | 1015.4 hPa | 0 mm | - | 295 W/m² | - |
| 1787643966 | 16.11° C | 77% | 1015.4 hPa | 0 mm | - | 302 W/m² | - |
| 1787643657 | 16.11° C | 78% | 1015.5 hPa | 0 mm | - | 315 W/m² | - |
| 1787643358 | 16.11° C | 79% | 1015.4 hPa | 0 mm | - | 244 W/m² | - |
| 1787643053 | 15.56° C | 80% | 1015.5 hPa | 0 mm | - | 120 W/m² | - |
| 1787642874 | 15.56° C | 80% | 1015.6 hPa | 0 mm | - | 116 W/m² | - |
| 1787642447 | 15.56° C | 81% | 1015.7 hPa | 0 mm | - | 116 W/m² | - |
| 1787642147 | 15° C | 82% | 1015.7 hPa | 0 mm | - | 49 W/m² | - |
| 1787641844 | 15° C | 83% | 1015.7 hPa | 0 mm | - | 40 W/m² | - |
| 1787641541 | 14.44° C | 83% | 1015.8 hPa | 0 mm | - | 202 W/m² | - |
| 1787641242 | 14.44° C | 84% | 1015.8 hPa | 0 mm | - | 47 W/m² | - |
| 1787640934 | 14.44° C | 85% | 1015.7 hPa | 0 mm | - | 93 W/m² | - |
| 1787640633 | 13.89° C | 85% | 1015.7 hPa | 0 mm | - | 67 W/m² | - |
| 1787640459 | 13.89° C | 86% | 1015.8 hPa | 0 mm | - | 53 W/m² | - |
| 1787640034 | 13.89° C | 86% | 1015.7 hPa | 0 mm | - | 72 W/m² | - |
| 1787639722 | 13.33° C | 87% | 1015.5 hPa | 0 mm | - | 44 W/m² | - |
| 1787639545 | 13.33° C | 87% | 1015.7 hPa | 0 mm | - | 109 W/m² | - |
| 1787639122 | 13.33° C | 88% | 1015.7 hPa | 0 mm | - | 97 W/m² | - |
| 1787638820 | 13.33° C | 89% | 1015.6 hPa | 0 mm | - | 37 W/m² | - |
| 1787638517 | 12.78° C | 89% | 1015.5 hPa | 0 mm | - | 72 W/m² | - |
| 1787638216 | 12.78° C | 89% | 1015.5 hPa | 0 mm | - | 40 W/m² | - |
| 1787637911 | 12.78° C | 89% | 1015.4 hPa | 0 mm | - | 28 W/m² | - |
* Rain latest hour (hover to see other rain measurements)
** Current wind speed in m/s (hover to see current wind gust speed)